Wind_Speed
75 77 81 83 84 84 86 83 77 71 66 63 59 55 50 43 35 33 32 34 30 32 35 35 35 30 28 29 25 29 28 24
79 83 86 89 91 92 87 76 73 69 63 62 56 55 48 44 34 32 33 35 34 30 35 37 36 36 34 30 31 30 30 28
82 84 89 94 95 88 81 80 76 72 70 67 60 55 49 47 38 34 35 35 35 36 34 37 37 37 38 33 34 33 32 33
88 91 94 94 86 85 84 82 78 71 71 69 61 58 53 49 42 38 36 35 37 37 35 38 40 38 41 39 36 37 38 32
95 99 96 90 87 83 83 86 80 77 72 66 66 60 55 46 47 44 40 36 38 40 38 36 36 43 39 43 43 40 43 38
104 100 95 95 93 90 87 89 85 81 80 77 70 62 59 50 47 44 44 43 43 43 40 39 37 37 44 43 45 47 46 44
102 100 100 101 103 101 99 97 93 90 88 85 79 69 62 56 53 48 46 47 48 46 44 44 40 38 42 44 46 49 52 49
107 108 109 112 110 109 106 104 100 99 98 93 87 76 66 62 56 57 53 48 50 53 50 46 43 40 40 42 45 47 52 53
117 117 116 117 107 106 107 109 109 108 102 95 86 77 68 61 57 60 59 57 65 57 59 51 52 50 45 46 46 43 45 56
121 117 115 112 110 109 111 114 113 109 102 94 84 74 68 63 58 60 65 66 59 67 67 59 52 54 54 53 54 47 44 42
115 115 115 115 118 120 122 120 111 104 96 86 79 75 67 64 63 63 68 69 70 67 73 69 63 59 58 60 58 51 49 42
119 122 119 124 126 127 126 118 108 96 86 82 76 73 65 63 64 67 69 74 76 83 68 68 69 65 60 66 58 54 50 46
126 124 128 130 131 132 124 114 102 93 84 73 75 71 67 62 63 68 73 74 82 84 76 73 68 69 66 61 53 54 48 51
125 129 129 131 131 124 114 106 97 91 79 76 64 66 66 61 62 70 77 77 81 85 77 71 71 72 67 58 57 54 48 55
131 127 130 134 128 116 106 102 96 89 83 80 74 65 66 67 61 69 78 82 85 89 88 79 72 67 69 66 64 50 40 64
130 131 138 131 119 107 98 92 84 77 76 79 77 73 65 64 64 65 78 87 90 94 95 87 78 76 72 66 62 58 63 55
134 141 139 128 120 113 102 94 91 87 73 65 73 76 71 65 62 64 76 88 95 98 100 100 96 83 84 75 73 72 82 84
144 142 134 127 119 112 102 95 89 84 77 74 67 67 71 71 60 67 76 89 96 100 104 109 103 94 94 94 89 83 88 88
140 134 127 121 114 106 100 93 86 78 72 68 69 66 61 69 64 56 75 87 98 105 109 112 112 106 101 96 96 98 95 99
144 133 126 120 110 100 96 89 78 71 67 62 59 56 53 53 65 55 69 81 91 102 110 115 116 115 113 109 103 98 100 101
Wind_Direction
328 329 329 330 328 327 325 324 323 323 320 318 316 315 312 305 296 294 291 291 272 268 271 275 271 273 280 284 282 290 289 292
327 326 326 326 325 324 324 324 322 321 320 317 315 314 309 302 292 289 285 284 287 281 266 263 272 272 269 265 274 273 283 282
324 324 324 324 324 324 324 323 321 321 320 317 318 311 303 299 285 278 279 281 279 278 281 276 266 261 267 269 262 263 274 274
323 323 323 322 322 323 322 321 320 319 318 316 311 306 301 292 285 273 272 277 278 274 275 279 279 271 259 259 260 256 262 275
322 321 321 321 322 321 321 322 320 319 317 314 313 307 301 285 284 276 265 268 275 272 272 267 276 275 280 269 254 255 255 263
322 322 322 323 323 323 323 323 321 317 317 311 306 301 294 277 274 268 260 260 261 263 266 264 268 273 277 286 265 253 252 256
320 320 321 322 323 325 325 323 320 318 315 310 305 297 289 282 268 262 262 255 257 260 260 262 267 270 270 277 283 262 252 250
321 322 323 324 326 326 323 320 319 315 312 307 303 297 288 279 270 262 262 258 256 259 256 255 257 265 268 266 270 267 255 254
326 325 324 323 320 319 318 317 315 311 307 304 300 294 286 277 266 258 251 253 259 252 255 256 255 257 259 267 264 268 257 251
324 323 320 318 316 316 316 313 311 308 306 302 296 288 281 272 258 250 246 242 253 252 252 246 250 253 256 257 263 257 260 258
322 319 315 315 316 316 315 314 310 307 303 299 293 287 279 268 259 245 238 236 240 247 248 248 251 244 251 257 258 256 255 257
319 317 316 314 315 315 315 311 309 305 300 296 290 285 279 268 255 248 238 228 227 236 245 245 244 243 244 251 251 253 253 257
318 317 315 317 317 317 314 312 310 307 302 296 290 284 276 263 250 243 237 232 226 228 236 244 242 241 244 236 248 250 259 254
318 316 317 318 317 315 314 312 311 306 302 297 287 282 274 262 248 241 231 227 226 226 224 236 240 242 236 230 240 246 252 257
317 317 317 319 317 315 313 311 310 305 301 296 290 279 271 264 251 237 232 226 223 222 221 221 228 229 231 229 237 234 247 257
318 318 320 319 316 315 312 308 305 298 294 293 291 285 274 264 255 240 230 226 223 220 218 217 220 223 227 225 230 220 227 243
320 323 322 321 320 319 316 313 311 308 303 291 282 282 278 267 253 242 228 224 223 221 217 215 215 217 221 221 223 227 226 230
323 324 323 322 321 319 316 313 309 305 303 297 286 276 274 272 258 240 227 222 221 221 218 215 216 213 217 222 225 224 224 227
324 323 323 321 320 318 315 311 309 307 300 293 287 282 273 270 268 246 229 224 221 220 219 217 216 216 215 219 224 225 229 228
326 324 324 323 320 318 315 311 311 306 302 297 290 284 274 261 260 248 231 224 223 222 220 219 217 218 219 221 221 225 227 228
Height
10865 10859 10854 10850 10845 10840 10832 10824 10816 10809 10804 10802 10798 10793 10788 10785 10781 10779 10777 10774 10773 10773 10772 10772 10771 10771 10772 10773 10774 10775 10775 10774
10856 10848 10842 10836 10829 10823 10816 10810 10803 10799 10792 10788 10788 10782 10778 10774 10771 10769 10767 10766 10765 10763 10761 10760 10761 10760 10762 10763 10765 10765 10768 10768
10849 10844 10835 10823 10814 10811 10805 10798 10792 10784 10778 10772 10767 10767 10764 10763 10759 10756 10756 10755 10755 10754 10753 10752 10752 10751 10750 10752 10754 10755 10757 10759
10837 10831 10826 10819 10812 10800 10791 10785 10779 10774 10769 10760 10757 10754 10750 10748 10747 10744 10742 10743 10744 10744 10744 10744 10744 10743 10742 10741 10741 10744 10746 10748
10824 10816 10809 10802 10799 10795 10783 10771 10761 10756 10755 10752 10743 10737 10735 10734 10733 10730 10728 10728 10730 10731 10730 10732 10734 10735 10735 10734 10731 10732 10734 10737
10800 10794 10788 10782 10777 10773 10766 10757 10748 10739 10733 10730 10728 10724 10719 10715 10717 10713 10712 10712 10713 10715 10716 10717 10719 10722 10725 10726 10724 10723 10723 10724
10788 10779 10770 10764 10754 10746 10740 10733 10726 10720 10714 10709 10708 10706 10699 10696 10695 10695 10695 10695 10696 10697 10699 10701 10703 10705 10711 10714 10714 10713 10713 10713
10766 10756 10745 10735 10726 10718 10711 10707 10703 10694 10685 10682 10680 10680 10680 10676 10678 10677 10680 10680 10678 10680 10682 10683 10685 10690 10695 10698 10700 10700 10700 10703
10735 10726 10717 10711 10705 10699 10687 10679 10673 10664 10659 10654 10650 10648 10651 10655 10658 10660 10661 10660 10656 10661 10666 10668 10669 10671 10679 10683 10686 10686 10687 10687
10720 10709 10698 10690 10682 10678 10669 10657 10646 10637 10630 10623 10618 10618 10619 10622 10627 10630 10638 10640 10640 10644 10650 10649 10651 10653 10659 10666 10671 10674 10674 10675
10704 10689 10679 10669 10657 10646 10636 10628 10621 10607 10596 10591 10586 10584 10586 10589 10594 10598 10601 10612 10622 10623 10629 10635 10640 10641 10641 10648 10655 10659 10660 10663
10690 10677 10665 10650 10640 10624 10609 10595 10584 10576 10570 10560 10554 10551 10553 10556 10560 10565 10572 10576 10587 10598 10603 10610 10620 10622 10625 10630 10636 10641 10644 10647
10676 10657 10639 10622 10607 10590 10571 10557 10548 10540 10534 10534 10522 10521 10520 10523 10525 10532 10540 10549 10555 10560 10577 10586 10595 10600 10606 10615 10617 10622 10627 10633
10655 10636 10619 10601 10580 10561 10541 10527 10522 10510 10505 10495 10496 10490 10487 10491 10495 10500 10506 10516 10526 10536 10546 10563 10572 10578 10588 10593 10602 10608 10617 10620
10634 10617 10599 10581 10558 10542 10521 10504 10492 10482 10473 10463 10458 10461 10459 10459 10466 10470 10475 10487 10495 10507 10519 10532 10548 10556 10562 10573 10583 10597 10601 10604
10607 10591 10569 10548 10531 10515 10499 10481 10472 10460 10448 10437 10429 10422 10424 10428 10434 10440 10446 10454 10464 10474 10490 10505 10520 10534 10540 10550 10563 10576 10585 10588
10578 10556 10533 10509 10486 10469 10456 10439 10427 10416 10417 10417 10405 10396 10392 10394 10401 10408 10414 10422 10434 10446 10458 10477 10490 10505 10520 10524 10535 10550 10560 10566
10547 10522 10495 10476 10458 10440 10426 10413 10402 10395 10387 10378 10374 10370 10362 10360 10368 10377 10385 10392 10402 10416 10432 10448 10463 10477 10490 10502 10513 10523 10535 10545
10523 10499 10478 10455 10438 10419 10401 10388 10377 10366 10357 10351 10342 10338 10340 10338 10340 10352 10358 10366 10376 10387 10403 10419 10436 10453 10462 10472 10486 10500 10512 10522
10487 10469 10448 10428 10410 10392 10375 10361 10351 10341 10329 10322 10316 10312 10312 10314 10313 10324 10333 10343 10354 10365 10379 10393 10411 10425 10439 10450 10460 10474 10487 10500